Location: Cherry Springs State Park
(41.6616°N, 77.8240°W)
Time: 10:23:47
(UTC-04:00)

Amateur Radio Satellites - All Passes

Search period start: 23 September 2014 09:53
Search period end: 24 September 2014 09:53
Location: Cherry Springs State Park, 41.6616°N, 77.8240°W

Satellite Date Start Highest point End Downlink Frequencies (MHz)
Time Altitude Azimuth
Oscar 11 23 Sep 10:03:44 10:06:51 19° 93° (E) 10:09:57 145.825 FM, Beacon 2401.500 USB
UKube-1 23 Sep 10:23:44 10:27:51 40° 99° (E) 10:31:58 145.840 MHz, 145.915 MHz
RS-15 23 Sep 10:24:47 10:33:30 26° 22° (NNE) 10:42:23 29.354 - 29.394 USB, Beacon 29.352 USB
ZACube-1 23 Sep 10:47:07 10:50:55 25° 94° (E) 10:54:39 437.345 MHz
HO-68 23 Sep 11:18:40 11:25:27 47° 294° (WNW) 11:32:13 435.675 MHz FM
Sapphire 23 Sep 11:20:31 11:25:26 37° 111° (ESE) 11:30:23 437.095 MHz 1200 baud AX-25 AFSK
Oscar 11 23 Sep 11:39:09 11:43:10 38° 289° (WNW) 11:47:09 145.825 FM, Beacon 2401.500 USB
FUNcube-1 23 Sep 11:39:31 11:44:10 88° 103° (ESE) 11:48:43 145.950 - 145.970 MHz USB
PCSat 23 Sep 11:46:32 11:51:53 68° 116° (ESE) 11:57:17 145.825 MHz
UKube-1 23 Sep 12:00:40 12:03:46 19° 295° (WNW) 12:06:51 145.840 MHz, 145.915 MHz
ZACube-1 23 Sep 12:23:12 12:27:20 33° 291° (WNW) 12:31:24 437.345 MHz
RS-15 23 Sep 12:37:36 12:48:37 64° 51° (NE) 13:00:03 29.354 - 29.394 USB, Beacon 29.352 USB
Uribyol 2 23 Sep 12:49:47 12:50:37 10° 56° (ENE) 12:51:27 436.500 FM
Oscar 19 23 Sep 12:50:40 12:54:42 23° 64° (ENE) 12:58:45 437.125 CW, 437.150 USB
Sapphire 23 Sep 13:03:59 13:08:52 34° 309° (NW) 13:13:47 437.095 MHz 1200 baud AX-25 AFSK
AO-Echo 23 Sep 13:11:19 13:14:07 16° 62° (ENE) 13:16:54 ?
FUNcube-1 23 Sep 13:18:54 13:19:48 11° 300° (WNW) 13:20:41 145.950 - 145.970 MHz USB
AO-27 23 Sep 13:19:37 13:23:13 19° 62° (ENE) 13:26:49 436.795 MHz FM
Oscar 16 23 Sep 13:28:59 13:34:01 53° 71° (ENE) 13:39:04 437.025 USB, Beacon 2401.1428
PCSat 23 Sep 13:31:45 13:35:49 21° 315° (NW) 13:39:55 145.825 MHz
JAS-1B 23 Sep 13:33:05 13:40:37 42° 68° (ENE) 13:47:01 435.800 - 435.900 CW/SSB
ITAMSAT 1 23 Sep 14:20:58 14:26:04 67° 73° (ENE) 14:31:14 435.822 SSB
Uribyol 2 23 Sep 14:24:02 14:29:11 76° 74° (ENE) 14:34:23 436.500 FM
AO-7 23 Sep 14:27:03 14:32:00 18° 48° (NE) 14:36:56 29.400 - 29.500 MHz
Oscar 19 23 Sep 14:28:47 14:33:44 45° 261° (W) 14:38:44 437.125 CW, 437.150 USB
Gurwin Techsat 1B 23 Sep 14:34:02 14:39:01 43° 70° (ENE) 14:44:01 435.225 FM
AO-Echo 23 Sep 14:47:48 14:52:26 57° 259° (W) 14:57:04 ?
RS-15 23 Sep 14:50:32 15:00:26 39° 252° (WSW) 15:10:45 29.354 - 29.394 USB, Beacon 29.352 USB
AO-27 23 Sep 14:57:13 15:02:17 56° 259° (W) 15:07:24 436.795 MHz FM
TMSAT-1 23 Sep 15:08:01 15:13:14 65° 73° (ENE) 15:18:29 436.925 FM
Oscar 16 23 Sep 15:10:01 15:13:40 19° 268° (W) 15:17:19 437.025 USB, Beacon 2401.1428
JAS-1B 23 Sep 15:23:28 15:31:11 40° 261° (W) 15:37:47 435.800 - 435.900 CW/SSB
Saudisat 1A 23 Sep 15:40:03 15:43:01 18° 111° (ESE) 15:46:00 436.775 MHz
Uosat F 23 Sep 16:01:37 16:06:09 36° 68° (ENE) 16:10:42 435.120 FM
ITAMSAT 1 23 Sep 16:03:14 16:06:03 15° 270° (W) 16:08:53 435.822 SSB
Uribyol 2 23 Sep 16:06:58 16:09:13 13° 271° (W) 16:11:29 436.500 FM
Gurwin Techsat 1B 23 Sep 16:14:54 16:19:08 24° 266° (W) 16:23:24 435.225 FM
AO-7 23 Sep 16:15:09 16:23:24 73° 68° (ENE) 16:31:40 29.400 - 29.500 MHz
JAS-2 23 Sep 16:44:32 16:47:19 15° 59° (ENE) 16:50:07 435.800 - 435.900 CW/SSB, 435.910 FM
TMSAT-1 23 Sep 16:50:28 16:53:36 16° 270° (W) 16:56:46 436.925 FM
MaSat-1 23 Sep 17:11:37 17:15:16 50° 60° (ENE) 17:18:22 437.345 MHz
Saudisat 1A 23 Sep 17:17:57 17:22:13 49° 308° (NW) 17:26:31 436.775 MHz
OPAL 23 Sep 17:18:11 17:22:24 25° 97° (E) 17:26:34 ?
Hamsat 23 Sep 17:34:04 17:37:53 30° 70° (ENE) 17:41:41 145.90 MHz
Uosat F 23 Sep 17:40:50 17:44:59 26° 265° (W) 17:49:10 435.120 FM
KITSAT 1 23 Sep 17:51:07 17:57:16 25° 104° (ESE) 18:03:25 435.175 FM
AO-7 23 Sep 18:10:26 18:16:51 24° 267° (W) 18:23:18 29.400 - 29.500 MHz
JAS-2 23 Sep 18:26:38 18:31:49 69° 258° (WSW) 18:37:02 435.800 - 435.900 CW/SSB, 435.910 FM
PCSat 23 Sep 18:53:07 18:55:01 12° 35° (NE) 18:56:55 145.825 MHz
OPAL 23 Sep 18:56:36 19:01:23 40° 293° (WNW) 19:06:06 ?
Hamsat 23 Sep 19:10:17 19:13:49 24° 266° (W) 19:17:23 145.90 MHz
SO-67 23 Sep 19:13:15 19:16:34 47° 74° (ENE) 19:19:55 435.3500 MHz FM
AO-40 23 Sep 19:39:09 00:34:03 37° 187° (S) 05:58:29 Beacon 2401.320
KITSAT 1 23 Sep 19:43:47 19:51:52 74° 303° (WNW) 19:59:59 435.175 FM
STRAND 1 23 Sep 19:44:18 19:49:17 49° 100° (E) 19:54:16 ?
HO-68 23 Sep 20:00:42 20:06:30 28° 59° (ENE) 20:12:19 435.675 MHz FM
Sapphire 23 Sep 20:07:59 20:12:54 33° 51° (NE) 20:17:47 437.095 MHz 1200 baud AX-25 AFSK
SO-50 23 Sep 20:30:31 20:32:08 12° 107° (ESE) 20:33:47 436.795 FM
PCSat 23 Sep 20:34:18 20:39:40 56° 57° (ENE) 20:44:59 145.825 MHz
Oscar 11 23 Sep 20:59:35 21:02:23 17° 64° (ENE) 21:05:10 145.825 FM, Beacon 2401.500 USB
UKube-1 23 Sep 21:19:28 21:23:26 37° 70° (ENE) 21:27:26 145.840 MHz, 145.915 MHz
STRAND 1 23 Sep 21:24:19 21:28:07 21° 297° (WNW) 21:31:56 ?
KITSAT 1 23 Sep 21:42:44 21:48:45 22° 327° (NNW) 21:54:47 435.175 FM
ZACube-1 23 Sep 21:44:11 21:47:33 21° 66° (ENE) 21:50:59 437.345 MHz
HO-68 23 Sep 21:46:42 21:53:43 61° 258° (WSW) 22:00:48 435.675 MHz FM
Sapphire 23 Sep 21:51:22 21:56:21 37° 249° (WSW) 22:01:17 437.095 MHz 1200 baud AX-25 AFSK
SO-50 23 Sep 22:07:32 22:12:01 75° 304° (NW) 22:16:38 436.795 FM
PCSat 23 Sep 22:18:42 22:22:38 21° 254° (WSW) 22:26:33 145.825 MHz
Oscar 11 23 Sep 22:33:59 22:38:11 47° 261° (W) 22:42:25 145.825 FM, Beacon 2401.500 USB
FUNcube-1 23 Sep 22:35:45 22:40:11 72° 75° (ENE) 22:44:44 145.950 - 145.970 MHz USB
UKube-1 23 Sep 22:56:34 22:59:44 20° 266° (W) 23:02:56 145.840 MHz, 145.915 MHz
ZACube-1 23 Sep 23:19:32 23:23:41 38° 263° (W) 23:27:57 437.345 MHz
UOSAT-12 23 Sep 23:20:09 23:24:37 53° 118° (ESE) 23:29:12 437.025 FM, 437.400 FM
Oscar 10/S400 23 Sep 23:40:56 00:27:26 52° 204° (SSW) 08:05:25 145.825 - 145.975 CW/USB, Beacon 145.810 USB
KITSAT 1 23 Sep 23:45:42 23:47:58 11° 357° (N) 23:50:14 435.175 FM
SO-50 23 Sep 23:51:14 23:53:25 13° 325° (NW) 23:55:37 436.795 FM
Saudisat 1A 24 Sep 00:05:34 00:08:47 19° 42° (NE) 00:12:00 436.775 MHz
FUNcube-1 24 Sep 00:16:01 00:17:06 11° 272° (W) 00:18:11 145.950 - 145.970 MHz USB
PANSAT 24 Sep 00:39:45 00:40:13 10° 172° (S) 00:40:40 not established
UOSAT-12 24 Sep 01:01:24 01:05:05 23° 317° (NW) 01:08:49 437.025 FM, 437.400 FM
ISS 24 Sep 01:35:35 01:38:53 69° 142° (SE) 01:42:13 145.800 FM
Oscar 16 24 Sep 01:41:34 01:45:04 18° 92° (E) 01:48:33 437.025 USB, Beacon 2401.1428
KITSAT 1 24 Sep 01:42:11 01:47:29 18° 28° (NNE) 01:52:45 435.175 FM
Saudisat 1A 24 Sep 01:44:22 01:48:43 58° 241° (WSW) 01:53:02 436.775 MHz
PANSAT 24 Sep 02:18:37 02:19:34 11° 186° (S) 02:20:30 not established
ITAMSAT 1 24 Sep 02:34:18 02:38:27 24° 94° (E) 02:42:35 435.822 SSB
Uribyol 2 24 Sep 02:37:06 02:41:30 27° 95° (E) 02:45:51 436.500 FM
Oscar 19 24 Sep 02:39:56 02:45:04 63° 101° (ESE) 02:50:09 437.125 CW, 437.150 USB
Gurwin Techsat 1B 24 Sep 02:51:06 02:54:27 17° 91° (E) 02:57:47 435.225 FM
AO-Echo 24 Sep 02:54:17 02:58:59 43° 99° (E) 03:03:46 ?
RS-15 24 Sep 03:02:32 03:12:12 37° 107° (ESE) 03:21:43 29.354 - 29.394 USB, Beacon 29.352 USB
JAS-1B 24 Sep 03:07:48 03:13:23 56° 101° (E) 03:19:08 435.800 - 435.900 CW/SSB
AO-27 24 Sep 03:09:56 03:15:02 52° 100° (E) 03:20:06 436.795 MHz FM
ISS 24 Sep 03:13:06 03:15:51 23° 340° (NNW) 03:18:37 145.800 FM
Oscar 16 24 Sep 03:19:43 03:24:46 55° 288° (WNW) 03:29:45 437.025 USB, Beacon 2401.1428
TMSAT-1 24 Sep 03:24:14 03:28:35 25° 94° (E) 03:32:55 436.925 FM
KITSAT 1 24 Sep 03:36:52 03:44:50 58° 53° (NE) 03:52:44 435.175 FM
Uosat F 24 Sep 04:12:16 04:12:47 10° 88° (E) 04:13:19 435.120 FM
ITAMSAT 1 24 Sep 04:13:11 04:18:06 43° 291° (WNW) 04:23:01 435.822 SSB
Uribyol 2 24 Sep 04:16:13 04:21:02 38° 292° (WNW) 04:25:50 436.500 FM
AO-7 24 Sep 04:17:39 04:23:50 23° 93° (E) 04:29:58 29.400 - 29.500 MHz
Oscar 19 24 Sep 04:20:36 04:23:53 17° 299° (WNW) 04:27:09 437.125 CW, 437.150 USB
Gurwin Techsat 1B 24 Sep 04:29:35 04:34:50 62° 287° (WNW) 04:40:03 435.225 FM
OPAL 24 Sep 04:32:50 04:37:48 48° 68° (ENE) 04:42:48 ?
AO-Echo 24 Sep 04:33:43 04:37:29 23° 295° (WNW) 04:41:20 ?
AO-27 24 Sep 04:50:20 04:54:10 21° 297° (WNW) 04:58:00 436.795 MHz FM
ISS 24 Sep 04:51:28 04:53:27 15° 1° (N) 04:55:26 145.800 FM
SO-50 24 Sep 04:59:20 05:02:33 18° 40° (NE) 05:05:47 436.795 FM
JAS-1B 24 Sep 04:59:42 05:03:40 20° 300° (WNW) 05:07:38 435.800 - 435.900 CW/SSB
TMSAT-1 24 Sep 05:03:40 05:08:38 41° 291° (WNW) 05:13:34 436.925 FM
RS-15 24 Sep 05:12:57 05:23:53 65° 309° (NW) 05:34:46 29.354 - 29.394 USB, Beacon 29.352 USB
KITSAT 1 24 Sep 05:32:50 05:39:50 34° 253° (WSW) 05:46:49 435.175 FM
JAS-2 24 Sep 05:35:02 05:38:55 16° 91° (E) 05:43:01 435.800 - 435.900 CW/SSB, 435.910 FM
Uosat F 24 Sep 05:47:10 05:52:13 88° 285° (WNW) 05:57:16 435.120 FM
AO-7 24 Sep 06:09:05 06:17:22 77° 291° (WNW) 06:25:38 29.400 - 29.500 MHz
UOSAT-12 24 Sep 06:12:18 06:12:52 10° 31° (NNE) 06:13:25 437.025 FM, 437.400 FM
OPAL 24 Sep 06:12:55 06:16:53 22° 265° (W) 06:20:53 ?
ISS 24 Sep 06:28:12 06:31:02 25° 21° (NNE) 06:33:50 145.800 FM
SO-50 24 Sep 06:38:52 06:43:42 81° 238° (WSW) 06:48:34 436.795 FM
Hamsat 24 Sep 06:54:54 06:59:06 58° 100° (E) 07:03:13 145.90 MHz
MaSat-1 24 Sep 06:56:31 07:00:32 25° 106° (ESE) 07:04:30 437.345 MHz
STRAND 1 24 Sep 07:00:26 07:05:29 73° 74° (ENE) 07:10:35 ?
JAS-2 24 Sep 07:18:09 07:24:26 84° 285° (WNW) 07:31:32 435.800 - 435.900 CW/SSB, 435.910 FM
Uosat F 24 Sep 07:28:32 07:30:14 12° 302° (WNW) 07:31:55 435.120 FM
RS-15 24 Sep 07:30:18 07:38:55 26° 338° (NNW) 07:47:38 29.354 - 29.394 USB, Beacon 29.352 USB
UOSAT-12 24 Sep 07:49:33 07:54:10 49° 52° (NE) 07:58:41 437.025 FM, 437.400 FM
AO-7 24 Sep 08:03:39 08:08:52 19° 311° (NW) 08:14:04 29.400 - 29.500 MHz
ISS 24 Sep 08:04:39 08:07:57 60° 219° (SW) 08:11:13 145.800 FM
SO-67 24 Sep 08:09:23 08:12:47 56° 100° (E) 08:16:11 435.3500 MHz FM
MaSat-1 24 Sep 08:32:17 08:37:01 42° 301° (WNW) 08:41:36 437.345 MHz
Hamsat 24 Sep 08:32:36 08:34:33 13° 297° (WNW) 08:36:29 145.90 MHz
STRAND 1 24 Sep 08:42:53 08:45:12 13° 270° (W) 08:47:32 ?
JAS-2 24 Sep 09:05:27 09:08:47 15° 301° (WNW) 09:12:19 435.800 - 435.900 CW/SSB, 435.910 FM
HO-68 24 Sep 09:14:43 09:20:34 26° 94° (E) 09:26:22 435.675 MHz FM
UOSAT-12 24 Sep 09:30:31 09:33:58 20° 249° (WSW) 09:37:21 437.025 FM, 437.400 FM
